Hourly Data Report for September 13, 2017

All times are specified in Local Standard Time (LST). Add 1 hour to adjust for Daylight Saving Time where and when it is observed.

BUCTOUCHE CDA CS
NEW BRUNSWICK

46°25'49.006" N
64°46'05.009" W
35.90 m
8100593
71666
ABT

Download Data

Hourly Data (September 2017)
Hourly Data Report for September 13, 2017
Temp Definition
°C
Dew Point Temp Definition
°C
Rel Hum Definition
%
Wind Dir Definition
10's deg

Wind Spd Definition
km/h
Visibility Definition
km
Stn Press Definition
kPa
Hmdx Definition


Wind Chill Definition


Weather Definition


TIME
00:00 12.0 11.0 94 24 5   100.04     LegendNANA
01:00 11.6 10.6 93 29 3   100.08     LegendNANA
02:00 9.8 8.9 94 28 2   100.06     LegendNANA
03:00 11.6 10.9 95 25 8   100.08     LegendNANA
04:00 11.6 10.2 91 26 7   100.06     LegendNANA
05:00 10.7 9.7 93 24 7   100.09     LegendNANA
06:00 10.5 9.4 93 23 7   100.12     LegendNANA
07:00 11.5 10.1 91 24 6   100.19     LegendNANA
08:00 13.7 11.8 88 24 10   100.20     LegendNANA
09:00 17.3 13.4 78 24 9   100.21     LegendNANA
10:00 21.0 13.6 62 25 9   100.19     LegendNANA
11:00 22.5 13.5 57 27 12   100.16 26   LegendNANA
12:00 24.9 10.6 40 27 14   100.12 26   LegendNANA
13:00 25.7 8.7 34 27 15   100.08 26   LegendNANA
14:00 26.2 8.9 33 25 16   100.05 27   LegendNANA
15:00 26.8 9.3 33 25 12   100.02 28   LegendNANA
16:00 26.6 9.2 34 26 12   100.03 28   LegendNANA
17:00 26.0 8.3 33 25 12   100.03 27   LegendNANA
18:00 22.7 10.6 47 21 7   100.03     LegendNANA
19:00 20.6 10.6 53 22 9   100.08     LegendNANA
20:00 19.7 10.6 56 22 10   100.12     LegendNANA
21:00 18.9 10.7 59 22 11   100.12     LegendNANA
22:00 18.6 11.1 62 22 11   100.11     LegendNANA
23:00 17.6 12.0 70 22 14   100.12     LegendNANA

Notes on Data Quality.

Legend

  • E = Estimated
  • M = Missing
  • NA = Not Available
  • ‡ = Partner data that is not subject to review by the National Climate Archives
Date modified: